Вернуться в каталог

FENGYUN 1C DEB

АктивенSSO
NORAD 30140·DEBRIS·🇨🇳 China

Запущен May 10, 1999 с Taiyuan Satellite Launch Center

Loading…

Ближайшие Пролёты (ближайшие 24 часа)

TLE

СвежийSource: Space-Track

Эпоха: Sep 14, 2026, 11:11 UTC

1 30140U 99025SV  26257.46604264  .00001485  00000-0  68479-3 0  9992
2 30140  98.8075 324.9705 0040179 236.9800 191.0786 14.22141408 10501

Отслеживайте FENGYUN 1C DEB в реальном времени с AllMySat

Download on the App Store